Location: Poughquag
(41.6090°N, 73.6820°W)
Time: 03:24:22
(UTC-04:00)

S-56A Canister/Altair - Pass Details

Date: 29 May 2020
Orbit: 633 x 2499 km, 38.9° (Epoch: 06 July)

Event Time Altitude Azimuth Distance (km) Brightness Sun altitude
Rises 06:14:37 0° 239° (WSW) 3,460 10.2 7.6°
Reaches altitude 10° 06:16:50 10° 234° (SW) 2,693 9.7 8.0°
Maximum altitude 06:23:12 56° 157° (SSE) 1,459 9.1 9.1°
Drops below altitude 10° 06:32:53 10° 83° (E) 4,033 13.4 10.8°
Sets 06:36:54 0° 80° (E) 5,320 13.8 11.5°
